Location: Albuquerque Trailhead
(34.7934°N, 106.3736°W)
Time: 22:19:41
(UTC+00:00)

Cosmos 1655 Rocket - Pass Details

Date: 20 June 2021
Orbit: 971 x 1005 km, 82.9° (Epoch: 01 August)

Event Time Altitude Azimuth Distance (km) Brightness Sun altitude
Exits shadow 10:17:02 24° 210° (SSW) 1,910 5.0 -16.4°
Maximum altitude 10:20:47 55° 279° (W) 1,154 4.2 -15.9°
Drops below altitude 10° 10:26:54 10° 357° (N) 2,728 6.9 -15.0°
Sets 10:29:29 0° 1° (N) 3,683 7.7 -14.6°
